[[{"header":{"parameterUnit":"m.s-1","parameterCategory":1,"la1":30.2991,"la2":30.254,"lo1":-89.0895,"lo2":-89.0444,"dy":0.0017,"dx":0.0017,"nx":28,"ny":28,"refTime":"2023-10-29T21:00:00:Z","depth":0,"parameterNumber":2,"parameterNumberName":"U-component_of_WINDS"},"data":[0,0,0,0,0,0,0,0,0,0,0,0,0,0,0,0,0,0,0,0,0,0,0,0,0,0,0,0,0,0,0,0,0,0,0,0,0,0,0,0,0,0,0,0,0,0,0,0,0,0,0,0,0,0,0,0,0,0,2.1798,2.18,0,2.1957,2.1959,2.1961,2.2014,2.2014,2.2013,2.2012,2.2177,2.2182,2.2187,0,0,0,0,0,0,0,0,0,0,0,0,0,2.1544,2.1548,2.1798,2.18,2.1802,2.1957,2.1959,2.1961,2.2014,2.2014,2.2013,2.2012,2.2175,2.2181,2.2187,0,0,0,0,0,0,0,0,0,0,0,0,0,2.1674,2.155,2.1798,2.1847,2.1853,2.1957,2.1959,2.1962,2.2015,2.2014,2.2013,2.2012,2.2174,2.2181,2.2188,2.2254,0,0,2.2211,2.2214,0,0,0,0,0,0,0,0,2.1666,2.1683,2.1838,2.1844,2.1851,2.1965,2.193,2.206,2.2015,2.1953,2.2012,2.2011,2.2107,2.212,2.2152,2.2262,2.2269,2.2212,2.2216,2.222,2.2222,0,0,0,0,0,0,0,2.1657,2.1676,2.1861,2.184,2.1848,2.1863,2.188,2.1955,2.2034,2.1959,2.1963,2.1981,2.2111,2.2145,2.2157,2.2272,2.2212,2.2218,2.2223,2.2226,2.2446,2.2448,0,0,0,0,0,0,2.1639,2.1668,2.1856,2.1866,2.1754,2.1868,2.1887,2.1929,2.2033,2.2048,2.1982,2.1983,2.2133,2.2148,2.2163,2.2248,2.222,2.2227,2.2231,2.2445,2.2447,2.2448,0,0,0,0,0,0,2.1634,2.1656,2.185,2.1769,2.1794,2.1873,2.192,2.1933,2.1967,2.2051,2.2065,2.2002,2.2133,2.2152,2.2232,2.2255,2.223,2.2237,2.2443,2.2446,2.2447,2.2419,0,0,0,0,0,0,2.1626,2.1653,2.1678,2.1769,2.1798,2.1915,2.1922,2.1937,2.198,2.1983,2.2074,2.2088,2.2133,2.222,2.2239,2.2264,2.2243,2.2442,2.2444,2.2447,2.2418,2.2419,2.2421,0,0,0,0,0,2.1617,2.1664,2.1679,2.1701,2.1831,2.1916,2.1933,2.1984,2.1981,2.2008,2.2062,2.2085,2.2249,2.2228,2.225,2.2278,2.244,2.2444,2.2447,2.2417,2.2419,2.2421,0,0,0,0,0,0,2.1574,2.1676,2.1695,2.1772,2.1835,2.1925,2.1959,2.1984,2.2049,2.205,2.2111,2.2131,2.2206,2.225,2.2224,2.2348,2.2346,2.2354,2.2316,2.2319,2.232,2.2308,2.2249,0,0,0,0,0,2.1573,2.1633,2.172,2.1779,2.181,2.1879,2.1918,2.1952,2.202,2.2047,2.2107,2.2172,2.2239,2.2282,2.2348,2.2425,2.2446,2.2455,2.2457,2.2458,2.2463,2.2509,2.2514,2.2458,2.2458,2.2458,0,0,2.1573,2.1636,2.167,2.1772,2.1825,2.1886,2.1901,2.1965,2.2011,2.2057,2.2135,2.2182,2.226,2.2339,2.2377,2.2378,2.2484,2.2461,2.2461,2.2467,2.2513,2.2518,2.2523,2.246,2.246,2.2459,0,0,2.1603,2.1657,2.1713,2.1766,2.1846,2.1892,2.1905,2.1992,2.2025,2.2105,2.2141,2.2198,2.2311,2.2365,2.2408,2.2461,2.2485,2.2481,2.2488,2.2533,2.2537,2.2541,2.2561,2.2567,2.2487,2.2487,2.2487,0,2.1593,2.1685,2.1739,2.1802,2.1846,2.1891,2.1949,2.1998,2.2095,2.2126,2.2126,2.227,2.2325,2.2418,2.2432,2.2464,2.2483,2.2471,2.2532,2.2537,2.2541,2.2561,2.2568,2.2486,2.2486,2.2486,2.2486,0,2.1669,2.1733,2.1769,2.1862,2.1911,2.1971,2.2035,2.2078,2.2109,2.2156,2.2238,2.2306,2.2387,2.2412,2.2442,2.2511,2.2509,2.252,2.2518,2.2545,2.2564,2.2572,2.2484,2.2485,2.2485,2.2485,0,0,2.1674,2.1798,2.181,2.1853,2.1946,2.1997,2.206,2.2139,2.2176,2.2242,2.2297,2.2394,2.2405,2.2453,2.249,2.2529,2.2568,2.2536,2.2538,2.2539,2.2649,2.2639,2.2647,2.2585,2.2587,2.2588,2.2642,0,2.1717,2.183,2.1881,2.1972,2.2033,2.2077,2.2133,2.2196,2.2242,2.2301,2.2353,2.242,2.2429,2.2459,2.2499,2.2555,2.2591,2.2552,2.2638,2.264,2.2616,2.2657,2.2648,2.2695,2.265,2.2652,2.2653,0,2.178,2.1847,2.1943,2.203,2.2058,2.2106,2.2184,2.224,2.2314,2.2345,2.2399,2.2436,2.2505,2.2501,2.2598,2.257,2.2609,2.2642,2.2646,2.2655,2.2647,2.2668,2.2711,2.2718,2.2665,2.2664,2.2663,0,2.1775,2.1889,2.1962,2.1997,2.21,2.2134,2.2178,2.2251,2.2296,2.2365,2.2395,2.2471,2.2513,2.2572,2.2628,2.2619,2.2721,2.2721,2.275,2.2748,2.2768,2.2766,2.2818,2.2794,2.2794,2.2793,2.2793,0,2.1816,2.1873,2.1961,2.2005,2.2072,2.2132,2.2196,2.2244,2.2309,2.2365,2.2409,2.2461,2.2533,2.2595,2.264,2.2714,2.2733,2.2761,2.2772,2.2757,2.2753,2.2782,2.278,2.2795,2.2795,2.2795,2.2794,0,2.182,2.1881,2.1963,2.2055,2.2079,2.2124,2.2203,2.2249,2.2298,2.2369,2.2389,2.2466,2.2541,2.2604,2.2702,2.2733,2.2811,2.2824,2.2785,2.2791,2.2817,2.2813,2.2889,2.2902,2.2869,2.2869,2.2869,0,2.1842,2.1887,2.1984,2.2024,2.2068,2.2133,2.2179,2.2241,2.2288,2.2377,2.2413,2.2491,2.2556,2.2675,2.274,2.2817,2.2832,2.2853,2.2844,2.2827,2.2832,2.2829,2.2834,2.2853,2.2854,2.2854,2.2854,0,2.1874,2.1903,2.1967,2.2043,2.2097,2.216,2.2224,2.2255,2.2329,2.238,2.2457,2.2508,2.2609,2.2687,2.2771,2.2819,2.2849,2.2857,2.2867,2.2851,2.2827,2.2841,2.2787,2.2854,2.2854,2.2854,2.2854,2.2854,2.1888,2.1931,2.2006,2.2077,2.2132,2.2192,2.224,2.2295,2.236,2.2447,2.248,2.2559,2.2635,2.2751,2.2799,2.2863,2.2867,2.2882,2.2886,2.2889,2.2887,2.2818,2.2879,2.2879,2.2879,2.2879,2.2879,0,2.1923,2.1974,2.2039,2.2127,2.2184,2.2208,2.2281,2.2327,2.2395,2.2463,2.2527,2.2617,2.2693,2.2765,2.2846,2.2883,2.2899,2.2902,2.29,2.291,2.2879,2.2861,2.2888,2.2888,2.2888,2.2888,2.2888,2.2888,2.1948,2.2022,2.2059,2.2162,2.2213,2.229,2.233,2.2386,2.244,2.2538,2.2601,2.2648,2.2719,2.2805,2.2876,2.2896,2.2923,2.2922,2.2946,2.2914,2.2912,2.2911,2.2895,2.2928,2.2928,2.2972,2.2973,2.2973]},{"header":{"parameterUnit":"m.s-1","parameterCategory":1,"la1":30.2991,"la2":30.254,"lo1":-89.0895,"lo2":-89.0444,"dy":0.0017,"dx":0.0017,"nx":28,"ny":28,"refTime":"2023-10-29T21:00:00:Z","depth":0,"parameterNumber":3,"parameterNumberName":"V-component_of_WINDS"},"data":[0,0,0,0,0,0,0,0,0,0,0,0,0,0,0,0,0,0,0,0,0,0,0,0,0,0,0,0,0,0,0,0,0,0,0,0,0,0,0,0,0,0,0,0,0,0,0,0,0,0,0,0,0,0,0,0,0,0,-7.5994,-7.5994,0,-7.6039,-7.6039,-7.604,-7.5962,-7.5959,-7.5956,-7.5954,-7.5993,-7.5997,-7.6,0,0,0,0,0,0,0,0,0,0,0,0,0,-7.5836,-7.5839,-7.5994,-7.5994,-7.5995,-7.6039,-7.6039,-7.604,-7.5962,-7.5959,-7.5956,-7.5953,-7.5992,-7.5996,-7.6,0,0,0,0,0,0,0,0,0,0,0,0,0,-7.5895,-7.584,-7.5994,-7.5962,-7.5959,-7.6038,-7.6039,-7.604,-7.5963,-7.5959,-7.5955,-7.5951,-7.5991,-7.5996,-7.6001,-7.6111,0,0,-7.6017,-7.6019,0,0,0,0,0,0,0,0,-7.5891,-7.59,-7.5966,-7.5964,-7.5961,-7.5991,-7.5998,-7.6064,-7.5964,-7.5961,-7.5954,-7.5949,-7.5995,-7.6,-7.6016,-7.6113,-7.6115,-7.6017,-7.602,-7.6023,-7.6024,0,0,0,0,0,0,0,-7.5887,-7.5898,-7.6011,-7.5967,-7.5964,-7.5943,-7.5947,-7.601,-7.5999,-7.5961,-7.5956,-7.5962,-7.5993,-7.6012,-7.6017,-7.6115,-7.6017,-7.6022,-7.6025,-7.6027,-7.6306,-7.631,0,0,0,0,0,0,-7.5888,-7.5895,-7.601,-7.6013,-7.5916,-7.5949,-7.5954,-7.5985,-7.5998,-7.5997,-7.5966,-7.5959,-7.6005,-7.6011,-7.6018,-7.6149,-7.6023,-7.6027,-7.603,-7.6302,-7.6307,-7.6312,0,0,0,0,0,0,-7.5885,-7.5899,-7.6008,-7.5953,-7.5965,-7.5956,-7.5992,-7.5988,-7.6006,-7.6002,-7.5999,-7.5987,-7.6002,-7.601,-7.6089,-7.6149,-7.603,-7.6035,-7.6297,-7.6304,-7.631,-7.6411,0,0,0,0,0,0,-7.5881,-7.5898,-7.5941,-7.5954,-7.5968,-7.6081,-7.5996,-7.5992,-7.6017,-7.6008,-7.6021,-7.6019,-7.5999,-7.6082,-7.6095,-7.6154,-7.6039,-7.6291,-7.63,-7.6307,-7.6402,-7.642,-7.6436,0,0,0,0,0,-7.5875,-7.5966,-7.5944,-7.5958,-7.6022,-7.6084,-7.6092,-7.6069,-7.6022,-7.6064,-7.6061,-7.6019,-7.6141,-7.6091,-7.6104,-7.6166,-7.6288,-7.6297,-7.6307,-7.6395,-7.6417,-7.6435,0,0,0,0,0,0,-7.5957,-7.5967,-7.5942,-7.6041,-7.6063,-7.6071,-7.6123,-7.6092,-7.6126,-7.6116,-7.6084,-7.6088,-7.6173,-7.6177,-7.6122,-7.6274,-7.6206,-7.6219,-7.6268,-7.6289,-7.6305,-7.6302,-7.6043,0,0,0,0,0,-7.5987,-7.6039,-7.6044,-7.613,-7.6143,-7.6132,-7.6158,-7.6139,-7.6159,-7.6167,-7.617,-7.619,-7.6233,-7.6261,-7.63,-7.6403,-7.6405,-7.6452,-7.6469,-7.6483,-7.6494,-7.6549,-7.6571,-7.6344,-7.6343,-7.6343,0,0,-7.6048,-7.6061,-7.6094,-7.6147,-7.6162,-7.6215,-7.614,-7.6198,-7.6237,-7.6175,-7.6251,-7.6254,-7.6274,-7.6366,-7.6406,-7.6372,-7.6557,-7.6495,-7.6506,-7.6509,-7.6561,-7.6583,-7.6602,-7.635,-7.6349,-7.6348,0,0,-7.6187,-7.6202,-7.6276,-7.6294,-7.6318,-7.6311,-7.6329,-7.6343,-7.6344,-7.642,-7.6375,-7.642,-7.6494,-7.651,-7.6528,-7.6677,-7.6639,-7.6691,-7.6777,-7.6831,-7.6849,-7.6865,-7.6918,-7.6937,-7.6702,-7.6702,-7.6702,0,-7.626,-7.634,-7.6317,-7.6381,-7.6405,-7.6355,-7.6429,-7.6446,-7.6481,-7.6499,-7.646,-7.6554,-7.6564,-7.6659,-7.6696,-7.6712,-7.6731,-7.6688,-7.6849,-7.6864,-7.6879,-7.6929,-7.6949,-7.6708,-7.6708,-7.6707,-7.6706,0,-7.6428,-7.6484,-7.6541,-7.658,-7.661,-7.6679,-7.6665,-7.6699,-7.6678,-7.6674,-7.6752,-7.6763,-7.6804,-7.6825,-7.6804,-7.6919,-7.6897,-7.6855,-7.6785,-7.6907,-7.6953,-7.6973,-7.6717,-7.6715,-7.6713,-7.6711,0,0,-7.6616,-7.6645,-7.6666,-7.6684,-7.6709,-7.6751,-7.6818,-7.6861,-7.689,-7.6916,-7.697,-7.7036,-7.6998,-7.7019,-7.6999,-7.7047,-7.7165,-7.6999,-7.6999,-7.7029,-7.7292,-7.7324,-7.7346,-7.7141,-7.7145,-7.7147,-7.729,0,-7.6755,-7.6872,-7.6855,-7.6966,-7.7018,-7.6974,-7.7031,-7.7052,-7.7051,-7.7093,-7.7091,-7.7138,-7.7084,-7.7097,-7.7143,-7.7141,-7.7217,-7.7131,-7.7189,-7.7192,-7.7185,-7.7371,-7.7403,-7.7538,-7.7309,-7.7312,-7.7314,0,-7.6931,-7.6968,-7.7087,-7.7106,-7.7127,-7.7179,-7.7218,-7.726,-7.7283,-7.7278,-7.7304,-7.7276,-7.7341,-7.7272,-7.736,-7.7302,-7.7325,-7.7328,-7.7333,-7.7336,-7.7259,-7.7379,-7.758,-7.76,-7.7342,-7.734,-7.7338,0,-7.7058,-7.7136,-7.7218,-7.7234,-7.7259,-7.7297,-7.7308,-7.7328,-7.7355,-7.7389,-7.7406,-7.7446,-7.7468,-7.7498,-7.7482,-7.7433,-7.7574,-7.7503,-7.7571,-7.7571,-7.7601,-7.7599,-7.7808,-7.7618,-7.7617,-7.7617,-7.7616,0,-7.7213,-7.7287,-7.7275,-7.7325,-7.7407,-7.7386,-7.7467,-7.7472,-7.7491,-7.754,-7.7503,-7.7549,-7.7525,-7.7569,-7.7556,-7.7632,-7.7641,-7.7639,-7.7634,-7.7642,-7.7642,-7.7656,-7.7646,-7.7622,-7.7621,-7.762,-7.7619,0,-7.7367,-7.7362,-7.7448,-7.7466,-7.7472,-7.7531,-7.7545,-7.7591,-7.7589,-7.7652,-7.7665,-7.766,-7.7711,-7.7698,-7.7752,-7.7744,-7.7839,-7.7823,-7.7832,-7.7828,-7.7896,-7.789,-7.8121,-7.815,-7.7941,-7.7943,-7.7945,0,-7.7466,-7.7523,-7.7548,-7.758,-7.7596,-7.7647,-7.7676,-7.7659,-7.769,-7.7722,-7.7764,-7.7812,-7.785,-7.7932,-7.7932,-7.7974,-7.7958,-7.8036,-7.7963,-7.797,-7.7959,-7.7955,-7.7961,-7.805,-7.8052,-7.8054,-7.8056,0,-7.7643,-7.7639,-7.7684,-7.773,-7.7767,-7.78,-7.783,-7.7858,-7.7842,-7.788,-7.7933,-7.7962,-7.802,-7.8067,-7.8106,-7.8115,-7.8083,-7.8079,-7.8097,-7.8105,-7.8108,-7.8107,-7.7871,-7.8073,-7.8072,-7.807,-7.8069,-7.8069,-7.7772,-7.7821,-7.7848,-7.7899,-7.7921,-7.7951,-7.7996,-7.8001,-7.8046,-7.8093,-7.808,-7.814,-7.8162,-7.8212,-7.8226,-7.8272,-7.8242,-7.8268,-7.8274,-7.8281,-7.8289,-7.8102,-7.8279,-7.8278,-7.8278,-7.8277,-7.8277,0,-7.7947,-7.7963,-7.8011,-7.8057,-7.8098,-7.8068,-7.81,-7.8135,-7.819,-7.8215,-7.8254,-7.8315,-7.8362,-7.8367,-7.8411,-7.8447,-7.8433,-7.8459,-7.8456,-7.8458,-7.8314,-7.8294,-7.847,-7.847,-7.8469,-7.8469,-7.8469,-7.8469,-7.8043,-7.8124,-7.8124,-7.8216,-7.823,-7.8292,-7.8313,-7.834,-7.836,-7.8431,-7.8471,-7.8476,-7.8493,-7.8538,-7.858,-7.858,-7.8597,-7.8629,-7.8623,-7.8488,-7.8468,-7.845,-7.8431,-7.8633,-7.8633,-7.8764,-7.8765,-7.8766]}]]